When you browse on this site, cookies collect data to enhance your experience and personalize the content and advertising you see.
Visit our Privacy Policy to learn more. By continuing to use the site, you agree to this use of cookies and data.
  • In Romania
  • List of Countries
  • For 7 days
  • Water Temperature
  • Satellite Maps
  • Weather Map
  • Weather Widgets
  • user-avatar
    Login

    Hourly Weather Kvashonki

    Today, 17 January, Thursday

    Time Temperature Precipitation Wind Pressure Humidity
    00:00 -8°C° 0 mm 4 mps 731 mmHg 91%
    01:00 -8°C° 0 mm 4 mps 731 mmHg 90%
    02:00 -8°C° 0 mm 4 mps 732 mmHg 89%
    03:00 -9°C° 0 mm 4 mps 732 mmHg 89%
    04:00 -8°C° 0 mm 3 mps 732 mmHg 89%
    05:00 -9°C° 0 mm 3 mps 732 mmHg 89%
    06:00 -10°C° 0 mm 3 mps 732 mmHg 90%
    07:00 -12°C° 0 mm 3 mps 732 mmHg 91%
    08:00 -12°C° 0 mm 3 mps 731 mmHg 93%
    09:00 -12°C° 0.1 mm 4 mps 731 mmHg 92%
    10:00 -12°C° 0.1 mm 4 mps 730 mmHg 92%
    11:00 -12°C° 0.1 mm 5 mps 729 mmHg 92%
    12:00 -11°C° 0.5 mm 5 mps 729 mmHg 92%
    13:00 -10°C° 0.5 mm 5 mps 728 mmHg 91%
    14:00 -8°C° 0.5 mm 5 mps 727 mmHg 91%
    15:00 -8°C° 0.4 mm 6 mps 726 mmHg 90%
    16:00 -5°C° 0.4 mm 6 mps 726 mmHg 90%
    17:00 -4°C° 0.4 mm 6 mps 725 mmHg 89%
    18:00 -3°C° 0.3 mm 6 mps 724 mmHg 89%
    19:00 -3°C° 0.3 mm 6 mps 724 mmHg 88%
    20:00 -2°C° 0.3 mm 6 mps 723 mmHg 88%
    21:00 -2°C° 0.5 mm 6 mps 723 mmHg 88%
    22:00 -2°C° 0.5 mm 6 mps 722 mmHg 88%
    23:00 -2°C° 0.5 mm 6 mps 722 mmHg 89%

    Tomorrow, 18 January, Friday

    Time Temperature Precipitation Wind Pressure Humidity
    00:00 -2°C° 0.2 mm 6 mps 723 mmHg 88%
    01:00 -1°C° 0.2 mm 5 mps 724 mmHg 87%
    02:00 -1°C° 0.2 mm 5 mps 724 mmHg 86%
    03:00 -2°C° 0 mm 5 mps 725 mmHg 85%
    04:00 -4°C° 0 mm 5 mps 726 mmHg 85%
    05:00 -5°C° 0 mm 5 mps 727 mmHg 85%
    06:00 -5°C° 0 mm 5 mps 727 mmHg 86%
    07:00 -6°C° 0 mm 5 mps 728 mmHg 87%
    08:00 -7°C° 0 mm 4 mps 729 mmHg 87%
    09:00 -7°C° 0 mm 5 mps 730 mmHg 86%
    10:00 -8°C° 0 mm 5 mps 730 mmHg 84%
    11:00 -8°C° 0 mm 5 mps 731 mmHg 82%
    12:00 -9°C° 0 mm 4 mps 732 mmHg 84%
    13:00 -9°C° 0 mm 4 mps 732 mmHg 86%
    14:00 -9°C° 0 mm 3 mps 733 mmHg 88%
    15:00 -10°C° 0 mm 3 mps 733 mmHg 90%
    16:00 -12°C° 0 mm 2 mps 733 mmHg 92%
    17:00 -13°C° 0 mm 2 mps 733 mmHg 94%
    18:00 -11°C° 0 mm 1 mps 733 mmHg 94%
    19:00 -11°C° 0 mm 1 mps 733 mmHg 94%
    20:00 -10°C° 0 mm 1 mps 732 mmHg 95%
    21:00 -10°C° 0.2 mm 1 mps 732 mmHg 95%
    22:00 -10°C° 0.2 mm 1 mps 732 mmHg 95%
    23:00 -10°C° 0.2 mm 1 mps 732 mmHg 95%

    Day after tomorrow, 19 January, Saturday

    Time Temperature Precipitation Wind Pressure Humidity
    00:00 -11°C° 0 mm 1 mps 733 mmHg 96%
    01:00 -13°C° 0 mm 2 mps 733 mmHg 96%
    02:00 -14°C° 0 mm 2 mps 734 mmHg 96%
    03:00 -13°C° 0.1 mm 2 mps 734 mmHg 94%
    04:00 -13°C° 0.1 mm 3 mps 735 mmHg 93%
    05:00 -12°C° 0.1 mm 3 mps 735 mmHg 91%
    06:00 -12°C° 0.1 mm 3 mps 735 mmHg 91%
    07:00 -12°C° 0.1 mm 3 mps 736 mmHg 91%
    08:00 -12°C° 0.1 mm 3 mps 736 mmHg 91%
    09:00 -12°C° 0 mm 3 mps 736 mmHg 90%
    10:00 -12°C° 0 mm 3 mps 737 mmHg 89%
    11:00 -12°C° 0 mm 3 mps 737 mmHg 89%
    12:00 -12°C° 0 mm 3 mps 737 mmHg 89%
    13:00 -12°C° 0 mm 3 mps 738 mmHg 89%
    14:00 -10°C° 0 mm 2 mps 738 mmHg 90%
    15:00 -12°C° 0 mm 2 mps 738 mmHg 91%
    16:00 -13°C° 0 mm 2 mps 738 mmHg 93%
    17:00 -14°C° 0 mm 2 mps 738 mmHg 94%
    18:00 -14°C° 0 mm 2 mps 739 mmHg 95%
    19:00 -14°C° 0 mm 2 mps 739 mmHg 95%
    20:00 -14°C° 0 mm 2 mps 739 mmHg 96%
    21:00 -14°C° 0 mm 2 mps 739 mmHg 96%
    22:00 -14°C° 0 mm 2 mps 740 mmHg 96%
    23:00 -15°C° 0 mm 2 mps 740 mmHg 97%

    20 January, Sunday

    Time Temperature Precipitation Wind Pressure Humidity
    00:00 -13°C° 0.1 mm 2 mps 740 mmHg 96%
    01:00 -12°C° 0.1 mm 2 mps 740 mmHg 95%
    02:00 -10°C° 0.1 mm 3 mps 740 mmHg 94%
    03:00 -10°C° 0 mm 3 mps 740 mmHg 94%
    04:00 -9°C° 0 mm 3 mps 740 mmHg 93%
    05:00 -8°C° 0 mm 3 mps 740 mmHg 93%
    06:00 -8°C° 0.1 mm 3 mps 740 mmHg 92%
    07:00 -9°C° 0.1 mm 4 mps 739 mmHg 91%
    08:00 -9°C° 0.1 mm 4 mps 739 mmHg 91%
    09:00 -9°C° 0.2 mm 4 mps 739 mmHg 91%
    10:00 -8°C° 0.2 mm 4 mps 739 mmHg 91%
    11:00 -8°C° 0.2 mm 4 mps 739 mmHg 91%
    12:00 -7°C° 0.3 mm 3 mps 738 mmHg 92%
    13:00 -7°C° 0.3 mm 3 mps 738 mmHg 93%
    14:00 -6°C° 0.3 mm 2 mps 737 mmHg 95%
    15:00 -7°C° 0.6 mm 2 mps 737 mmHg 95%
    16:00 -7°C° 0.6 mm 2 mps 737 mmHg 95%
    17:00 -7°C° 0.6 mm 2 mps 737 mmHg 96%
    18:00 -8°C° 0 mm 2 mps 737 mmHg 96%
    19:00 -12°C° 0 mm 3 mps 737 mmHg 96%
    20:00 -13°C° 0 mm 3 mps 738 mmHg 96%
    21:00 -13°C° 0 mm 3 mps 738 mmHg 96%
    22:00 -13°C° 0 mm 2 mps 739 mmHg 96%
    23:00 -13°C° 0 mm 2 mps 739 mmHg 96%

    21 January, Monday

    Time Temperature Precipitation Wind Pressure Humidity
    00:00 -15°C° 0 mm 2 mps 739 mmHg 97%
    01:00 -16°C° 0 mm 2 mps 740 mmHg 97%
    02:00 -17°C° 0 mm 2 mps 740 mmHg 97%
    03:00 -17°C° 0 mm 2 mps 740 mmHg 98%
    04:00 -15°C° 0 mm 1 mps 740 mmHg 98%
    05:00 -15°C° 0 mm 1 mps 740 mmHg 98%
    06:00 -15°C° 0 mm 1 mps 740 mmHg 98%
    07:00 -15°C° 0 mm 1 mps 740 mmHg 97%
    08:00 -17°C° 0 mm 2 mps 740 mmHg 97%
    09:00 -17°C° 0 mm 2 mps 740 mmHg 97%
    10:00 -16°C° 0 mm 2 mps 740 mmHg 96%
    11:00 -16°C° 0 mm 2 mps 740 mmHg 95%
    12:00 -16°C° 0 mm 2 mps 741 mmHg 95%
    13:00 -16°C° 0 mm 2 mps 741 mmHg 95%
    14:00 -16°C° 0 mm 2 mps 741 mmHg 95%
    15:00 -17°C° 0 mm 2 mps 741 mmHg 96%
    16:00 -17°C° 0 mm 2 mps 741 mmHg 96%
    17:00 -18°C° 0 mm 2 mps 741 mmHg 97%
    18:00 -18°C° 0 mm 2 mps 741 mmHg 97%
    19:00 -16°C° 0 mm 1 mps 741 mmHg 97%
    20:00 -17°C° 0 mm 1 mps 741 mmHg 98%
    21:00 -17°C° 0 mm 1 mps 741 mmHg 98%
    22:00 -18°C° 0 mm 1 mps 741 mmHg 98%
    23:00 -19°C° 0 mm 1 mps 741 mmHg 98%

    22 January, Tuesday

    Time Temperature Precipitation Wind Pressure Humidity
    00:00 -19°C° 0 mm 1 mps 741 mmHg 99%
    01:00 -20°C° 0 mm 1 mps 741 mmHg 99%
    02:00 -20°C° 0 mm 1 mps 741 mmHg 99%
    03:00 -20°C° 0 mm 1 mps 741 mmHg 99%
    04:00 -20°C° 0 mm 1 mps 741 mmHg 99%
    05:00 -20°C° 0 mm 1 mps 741 mmHg 98%
    06:00 -20°C° 0 mm 1 mps 741 mmHg 98%
    07:00 -20°C° 0 mm 1 mps 742 mmHg 98%
    08:00 -19°C° 0 mm 1 mps 742 mmHg 98%
    09:00 -19°C° 0 mm 1 mps 742 mmHg 97%
    10:00 -18°C° 0 mm 1 mps 742 mmHg 96%
    11:00 -20°C° 0 mm 2 mps 743 mmHg 96%
    12:00 -20°C° 0 mm 2 mps 743 mmHg 96%
    13:00 -19°C° 0 mm 2 mps 743 mmHg 96%
    14:00 -19°C° 0 mm 2 mps 743 mmHg 95%
    15:00 -20°C° 0 mm 2 mps 744 mmHg 96%
    16:00 -21°C° 0 mm 2 mps 744 mmHg 98%
    17:00 -23°C° 0 mm 2 mps 744 mmHg 99%
    18:00 -23°C° 0 mm 2 mps 744 mmHg 99%
    19:00 -24°C° 0 mm 2 mps 745 mmHg 99%
    20:00 -25°C° 0 mm 2 mps 745 mmHg 98%
    21:00 -22°C° 0 mm 1 mps 745 mmHg 99%
    22:00 -23°C° 0 mm 1 mps 746 mmHg 99%
    23:00 -24°C° 0 mm 1 mps 746 mmHg 99%
    Show more